Location: Vancouver
(49.2500°N, 123.1330°W)
Time: 20:00:45
(UTC-08:00)

Cosmos 2333 Rocket - Visible Passes

Search period start: 17 December 2014 00:00
Search period end: 27 December 2014 00:00
Orbit: 841 x 861 km, 70.9° (Epoch: 17 December)

Date Brightness Start Highest point End Pass type
(mag) Time Alt. Az. Time Alt. Az. Time Alt. Az.
17 Dec 4.5 07:11:09 10° SSE 07:15:58 30° ESE 07:20:47 10° NE visible
17 Dec 3.3 17:45:09 10° NW 17:50:33 48° WSW 17:55:56 10° S visible
18 Dec 4.4 06:58:52 10° SSE 07:03:41 30° ESE 07:08:30 10° NE visible
18 Dec 3.3 17:32:52 10° NW 17:38:16 48° WSW 17:43:39 10° S visible
19 Dec 4.4 06:46:36 10° SSE 06:51:24 30° ESE 06:56:14 10° NE visible
19 Dec 3.4 17:20:35 10° NW 17:25:59 48° WSW 17:31:22 10° S visible
20 Dec 4.4 06:34:19 10° SSE 06:39:08 30° ESE 06:43:57 10° NE visible
20 Dec 3.4 17:08:19 10° NW 17:13:43 48° WSW 17:19:06 10° S visible
21 Dec 4.3 06:22:02 10° SSE 06:26:51 30° ESE 06:31:40 10° NE visible
21 Dec 3.4 16:56:02 10° NW 17:01:26 48° WSW 17:06:49 10° S visible
22 Dec 4.3 06:09:46 10° SSE 06:14:34 30° ESE 06:19:23 10° NE visible
22 Dec 3.5 16:43:45 10° NW 16:49:09 48° WSW 16:54:32 10° S visible
23 Dec 4.2 05:57:29 10° SSE 06:02:18 30° ESE 06:07:07 10° NE visible
24 Dec 4.2 05:45:13 10° SSE 05:50:01 30° ESE 05:54:50 10° NE visible
25 Dec 4.1 05:32:56 10° SSE 05:37:44 30° ESE 05:42:33 10° NE visible
25 Dec 2.3 07:16:12 10° SW 07:21:44 53° NW 07:27:17 10° NNE visible
26 Dec 4.1 05:20:40 10° SSE 05:25:28 30° ESE 05:30:16 10° NE visible
26 Dec 2.3 07:03:56 10° SW 07:09:27 53° NW 07:15:00 10° NNE visible
